Time,TemperatureF,DewpointF,PressureIn,WindDirection,WindDirectionDegrees,WindSpeedMPH,WindSpeedGustMPH,Humidity,HourlyPrecipIn,Conditions,Clouds,dailyrainin,SoftwareType,DateUTC
2013-05-02 00:42:00,53.6,33.3,30.45,ESE,115,0.0,0.0,46,0.00,,,0.00,Wunderground v.1.15,2013-05-02 04:42:00,
2013-05-02 00:47:00,53.5,33.2,30.45,ESE,115,0.0,2.0,46,0.00,,,0.00,Wunderground v.1.15,2013-05-02 04:47:00,
2013-05-02 00:57:00,53.5,33.2,30.45,ESE,115,2.0,2.0,46,0.00,,,0.00,Wunderground v.1.15,2013-05-02 04:57:00,
2013-05-02 01:27:00,52.8,33.6,30.45,ESE,115,1.0,1.0,48,0.00,,,0.00,Wunderground v.1.15,2013-05-02 05:27:00,
2013-05-02 01:32:00,52.6,33.5,30.45,ESE,115,2.0,2.0,48,0.00,,,0.00,Wunderground v.1.15,2013-05-02 05:32:00,
2013-05-02 01:42:00,52.6,34.0,30.45,ESE,115,0.0,3.0,49,0.00,,,0.00,Wunderground v.1.15,2013-05-02 05:42:00,
2013-05-02 01:57:00,52.0,33.9,30.45,ESE,115,1.0,3.0,50,0.00,,,0.00,Wunderground v.1.15,2013-05-02 05:57:00,
2013-05-02 02:12:00,51.7,33.6,30.45,ESE,115,2.0,6.0,50,0.00,,,0.00,Wunderground v.1.15,2013-05-02 06:12:00,
2013-05-02 02:32:00,51.9,33.8,30.45,ESE,106,6.0,8.0,50,0.00,,,0.00,Wunderground v.1.15,2013-05-02 06:32:00,
2013-05-02 03:07:00,49.5,34.4,30.44,ESE,104,5.0,17.0,56,0.00,,,0.00,Wunderground v.1.15,2013-05-02 07:07:00,
2013-05-02 03:27:00,49.4,34.8,30.45,ESE,103,4.0,17.0,57,0.00,,,0.00,Wunderground v.1.15,2013-05-02 07:27:00,
2013-05-02 03:32:00,49.1,34.9,30.45,ESE,103,3.0,17.0,58,0.00,,,0.00,Wunderground v.1.15,2013-05-02 07:32:00,
2013-05-02 03:42:00,48.6,35.3,30.45,ESE,103,1.0,3.0,60,0.00,,,0.00,Wunderground v.1.15,2013-05-02 07:42:00,
2013-05-02 03:52:00,48.3,35.9,30.45,ESE,103,2.0,2.0,62,0.00,,,0.00,Wunderground v.1.15,2013-05-02 07:52:00,
2013-05-02 04:12:00,47.3,36.5,30.45,ESE,103,1.0,1.0,66,0.00,,,0.00,Wunderground v.1.15,2013-05-02 08:12:00,
2013-05-02 04:22:00,46.7,36.3,30.46,ESE,103,2.0,2.0,67,0.00,,,0.00,Wunderground v.1.15,2013-05-02 08:22:00,
2013-05-02 04:52:00,46.2,37.0,30.46,East,100,3.0,3.0,70,0.00,,,0.00,Wunderground v.1.15,2013-05-02 08:52:00,
2013-05-02 05:17:00,45.7,37.9,30.47,East,98,3.0,3.0,74,0.00,,,0.00,Wunderground v.1.15,2013-05-02 09:17:00,
2013-05-02 05:27:00,45.8,38.0,30.47,East,98,2.0,2.0,74,0.00,,,0.00,Wunderground v.1.15,2013-05-02 09:27:00,
2013-05-02 05:52:00,46.1,37.9,30.46,East,98,1.0,3.0,73,0.00,,,0.00,Wunderground v.1.15,2013-05-02 09:52:00,
2013-05-02 06:27:00,44.2,37.8,30.46,East,98,4.0,4.0,78,0.00,,,0.00,Wunderground v.1.15,2013-05-02 10:27:00,
2013-05-02 06:32:00,44.3,37.9,30.47,East,98,3.0,4.0,78,0.00,,,0.00,Wunderground v.1.15,2013-05-02 10:32:00,
2013-05-02 06:42:00,44.8,38.4,30.47,East,98,2.0,2.0,78,0.00,,,0.00,Wunderground v.1.15,2013-05-02 10:42:00,
2013-05-02 06:52:00,45.1,38.6,30.47,East,98,0.0,0.0,78,0.00,,,0.00,Wunderground v.1.15,2013-05-02 10:52:00,
2013-05-02 07:07:00,46.0,38.9,30.48,East,98,1.0,1.0,76,0.00,,,0.00,Wunderground v.1.15,2013-05-02 11:07:00,
2013-05-02 07:17:00,46.2,38.7,30.48,East,98,0.0,6.0,75,0.00,,,0.00,Wunderground v.1.15,2013-05-02 11:17:00,
2013-05-02 07:27:00,46.2,38.4,30.48,East,98,1.0,6.0,74,0.00,,,0.00,Wunderground v.1.15,2013-05-02 11:27:00,
2013-05-02 07:32:00,46.0,38.5,30.48,East,98,1.0,6.0,75,0.00,,,0.00,Wunderground v.1.15,2013-05-02 11:32:00,
2013-05-02 07:42:00,46.0,38.9,30.48,East,98,2.0,3.0,76,0.00,,,0.00,Wunderground v.1.15,2013-05-02 11:42:00,
2013-05-02 08:07:00,47.1,39.2,30.49,East,98,2.0,2.0,74,0.00,,,0.00,Wunderground v.1.15,2013-05-02 12:07:00,
2013-05-02 08:27:00,47.9,39.7,30.50,East,98,1.0,1.0,73,0.00,,,0.00,Wunderground v.1.15,2013-05-02 12:27:00,
2013-05-02 08:32:00,47.7,39.5,30.50,East,98,2.0,5.0,73,0.00,,,0.00,Wunderground v.1.15,2013-05-02 12:32:00,
2013-05-02 08:42:00,48.3,40.0,30.50,East,98,2.0,2.0,73,0.00,,,0.00,Wunderground v.1.15,2013-05-02 12:42:00,
2013-05-02 08:52:00,50.2,41.5,30.50,East,98,1.0,1.0,72,0.00,,,0.00,Wunderground v.1.15,2013-05-02 12:52:00,
2013-05-02 09:22:00,52.0,41.0,30.49,East,98,3.0,10.0,66,0.00,,,0.00,Wunderground v.1.15,2013-05-02 13:22:00,
2013-05-02 09:52:00,53.6,41.3,30.50,East,101,2.0,2.0,63,0.00,,,0.00,Wunderground v.1.15,2013-05-02 13:52:00,
2013-05-02 10:27:00,56.0,39.6,30.49,ESE,116,4.0,12.0,54,0.00,,,0.00,Wunderground v.1.15,2013-05-02 14:27:00,
2013-05-02 10:32:00,55.3,39.4,30.49,ESE,116,4.0,12.0,55,0.00,,,0.00,Wunderground v.1.15,2013-05-02 14:32:00,
2013-05-02 10:42:00,56.0,41.9,30.49,ESE,117,6.0,6.0,59,0.00,,,0.00,Wunderground v.1.15,2013-05-02 14:42:00,
2013-05-02 12:12:00,61.0,42.2,30.47,SE,125,4.0,4.0,50,0.00,,,0.00,Wunderground v.1.15,2013-05-02 16:12:00,
2013-05-02 12:23:00,61.3,42.0,30.46,SE,127,5.0,13.0,49,0.00,,,0.00,Wunderground v.1.15,2013-05-02 16:23:00,
2013-05-02 12:32:00,61.6,40.6,30.45,SE,127,3.0,13.0,46,0.00,,,0.00,Wunderground v.1.15,2013-05-02 16:32:00,
2013-05-02 12:43:00,63.1,44.2,30.45,SE,126,4.0,4.0,50,0.00,,,0.00,Wunderground v.1.15,2013-05-02 16:43:00,
2013-05-02 13:13:00,63.4,40.5,30.45,ESE,121,7.0,7.0,43,0.00,,,0.00,Wunderground v.1.15,2013-05-02 17:13:00,
2013-05-02 13:38:00,64.5,41.5,30.44,ESE,123,6.0,7.0,43,0.00,,,0.00,Wunderground v.1.15,2013-05-02 17:38:00,
2013-05-02 13:53:00,66.0,41.6,30.43,SE,124,7.0,10.0,41,0.00,,,0.00,Wunderground v.1.15,2013-05-02 17:53:00,
2013-05-02 15:23:00,67.6,36.7,30.42,SE,124,9.0,18.0,32,0.00,,,0.00,Wunderground v.1.15,2013-05-02 19:23:00,
2013-05-02 15:33:00,68.1,39.4,30.41,ESE,117,10.0,10.0,35,0.00,,,0.00,Wunderground v.1.15,2013-05-02 19:33:00,
2013-05-02 15:58:00,67.6,32.4,30.40,ESE,115,11.0,20.0,27,0.00,,,0.00,Wunderground v.1.15,2013-05-02 19:58:00,
2013-05-02 16:43:00,67.6,35.0,30.40,SE,128,11.0,11.0,30,0.00,,,0.00,Wunderground v.1.15,2013-05-02 20:43:00,
2013-05-02 16:58:00,66.8,32.6,30.39,ESE,113,11.0,20.0,28,0.00,,,0.00,Wunderground v.1.15,2013-05-02 20:58:00,
2013-05-02 17:23:00,66.3,36.3,30.39,ESE,110,8.0,20.0,33,0.00,,,0.00,Wunderground v.1.15,2013-05-02 21:23:00,
2013-05-02 17:33:00,65.6,36.5,30.39,ESE,119,9.0,20.0,34,0.00,,,0.00,Wunderground v.1.15,2013-05-02 21:33:00,
2013-05-02 17:43:00,65.0,36.7,30.39,ESE,117,12.0,14.0,35,0.00,,,0.00,Wunderground v.1.15,2013-05-02 21:43:00,
2013-05-02 18:13:00,63.9,32.6,30.40,ESE,121,10.0,19.0,31,0.00,,,0.00,Wunderground v.1.15,2013-05-02 22:13:00,
2013-05-02 19:18:00,61.2,35.4,30.39,SE,128,12.0,20.0,38,0.00,,,0.00,Wunderground v.1.15,2013-05-02 23:18:00,
2013-05-02 19:33:00,60.7,36.2,30.40,ESE,123,9.0,9.0,40,0.00,,,0.00,Wunderground v.1.15,2013-05-02 23:33:00,
2013-05-02 19:48:00,60.1,38.1,30.40,ESE,117,9.0,11.0,44,0.00,,,0.00,Wunderground v.1.15,2013-05-02 23:48:00,
2013-05-02 20:18:00,58.7,39.0,30.40,ESE,109,8.0,8.0,48,0.00,,,0.00,Wunderground v.1.15,2013-05-03 00:18:00,
2013-05-02 20:58:00,57.5,40.0,30.39,ESE,119,10.0,10.0,52,0.00,,,0.00,Wunderground v.1.15,2013-05-03 00:58:00,
2013-05-02 21:18:00,57.0,40.0,30.39,ESE,120,7.0,17.0,53,0.00,,,0.00,Wunderground v.1.15,2013-05-03 01:18:00,
2013-05-02 21:28:00,57.0,40.5,30.39,ESE,119,8.0,17.0,54,0.00,,,0.00,Wunderground v.1.15,2013-05-03 01:28:00,
2013-05-02 21:33:00,56.9,40.4,30.40,ESE,111,8.0,17.0,54,0.00,,,0.00,Wunderground v.1.15,2013-05-03 01:33:00,
2013-05-02 21:43:00,56.5,40.5,30.40,ESE,123,5.0,5.0,55,0.00,,,0.00,Wunderground v.1.15,2013-05-03 01:43:00,
2013-05-02 22:27:00,56.0,40.5,30.40,ESE,117,5.0,5.0,56,0.00,,,0.00,Wunderground v.1.15,2013-05-03 02:27:00,
2013-05-02 23:07:00,54.5,40.5,30.40,ESE,107,6.0,12.0,59,0.00,,,0.00,Wunderground v.1.15,2013-05-03 03:07:00,
2013-05-02 23:37:00,53.3,40.2,30.39,ESE,112,3.0,3.0,61,0.00,,,0.00,Wunderground v.1.15,2013-05-03 03:37:00,
2013-05-02 23:47:00,53.2,40.5,30.39,ESE,112,2.0,2.0,62,0.00,,,0.00,Wunderground v.1.15,2013-05-03 03:47:00,